[[{"header":{"parameterUnit":"m.s-1","parameterCategory":1,"la1":30.2991,"la2":30.254,"lo1":-89.0895,"lo2":-89.0444,"dy":0.0017,"dx":0.0017,"nx":28,"ny":28,"refTime":"2025-01-03T03:00:00:Z","depth":0,"parameterNumber":2,"parameterNumberName":"U-component_of_WINDS"},"data":[0,0,0,0,0,0,0,0,0,0,0,0,0,0,0,0,0,0,0,0,0,0,0,0,0,0,0,0,0,0,0,0,0,0,0,0,0,0,0,0,0,0,0,0,0,0,0,0,0,0,0,0,0,0,0,0,0,0,0.2359,0.236,0,0.2398,0.2398,0.2399,0.2459,0.2461,0.2462,0.2463,0.2501,0.2501,0.2501,0,0,0,0,0,0,0,0,0,0,0,0,0,0.2337,0.2338,0.2359,0.236,0.236,0.2398,0.2398,0.2399,0.2459,0.2461,0.2462,0.2463,0.2501,0.2501,0.2501,0,0,0,0,0,0,0,0,0,0,0,0,0,0.2358,0.2338,0.2359,0.2395,0.2398,0.2398,0.2398,0.2399,0.2459,0.2461,0.2462,0.2464,0.2501,0.2501,0.2501,0.2468,0,0,0.2501,0.2501,0,0,0,0,0,0,0,0,0.2357,0.2359,0.2389,0.2392,0.2396,0.2426,0.2405,0.2422,0.2459,0.2436,0.2463,0.2465,0.2475,0.2477,0.2481,0.247,0.2472,0.2501,0.2501,0.2501,0.2501,0,0,0,0,0,0,0,0.2356,0.2358,0.2374,0.2389,0.2394,0.2409,0.2414,0.2408,0.2445,0.2438,0.2443,0.2446,0.2477,0.248,0.2482,0.2472,0.2501,0.2501,0.2501,0.2501,0.2437,0.2435,0,0,0,0,0,0,0.2349,0.2356,0.2373,0.2376,0.238,0.2408,0.2413,0.2414,0.2446,0.2452,0.2445,0.2449,0.248,0.2482,0.2483,0.2446,0.2501,0.2501,0.2501,0.2438,0.2436,0.2434,0,0,0,0,0,0,0.2348,0.235,0.2372,0.2367,0.2371,0.2407,0.2407,0.2414,0.2418,0.2451,0.2458,0.2441,0.2481,0.2483,0.2472,0.2448,0.2501,0.2501,0.244,0.2438,0.2435,0.2371,0,0,0,0,0,0,0.2347,0.2349,0.2337,0.2366,0.2371,0.2359,0.2406,0.2414,0.2418,0.2424,0.245,0.2455,0.2482,0.2471,0.2472,0.2449,0.2501,0.2442,0.2439,0.2436,0.2376,0.2367,0.2359,0,0,0,0,0,0.2346,0.2317,0.2336,0.2338,0.2356,0.2357,0.236,0.2392,0.2416,0.2403,0.2425,0.2455,0.2451,0.247,0.247,0.2448,0.2444,0.244,0.2436,0.2379,0.2369,0.236,0,0,0,0,0,0,0.2284,0.2322,0.2343,0.2323,0.2336,0.2368,0.2353,0.238,0.2386,0.2391,0.2431,0.2436,0.2419,0.2433,0.2452,0.2417,0.2452,0.2448,0.2409,0.2399,0.2391,0.2387,0.2501,0,0,0,0,0,0.2268,0.2265,0.2299,0.2278,0.2284,0.2317,0.2319,0.2342,0.2358,0.2364,0.2384,0.2398,0.24,0.2401,0.2405,0.2379,0.2385,0.2364,0.2356,0.2349,0.2344,0.2331,0.2322,0.2422,0.2422,0.2422,0,0,0.2234,0.2255,0.2251,0.2266,0.2279,0.2275,0.2321,0.2316,0.2313,0.2363,0.2352,0.2368,0.2386,0.2367,0.236,0.2378,0.2319,0.2344,0.2338,0.2337,0.2326,0.2317,0.2308,0.2419,0.2419,0.242,0,0,0.217,0.2186,0.217,0.2183,0.2203,0.2225,0.2222,0.2249,0.2261,0.2252,0.2289,0.2287,0.229,0.2301,0.2307,0.225,0.2277,0.225,0.2207,0.2193,0.2185,0.2178,0.2156,0.2148,0.2246,0.2246,0.2246,0,0.2126,0.2122,0.2158,0.215,0.2155,0.2201,0.2185,0.2195,0.2215,0.2218,0.2238,0.2243,0.2259,0.2242,0.2228,0.2232,0.2228,0.2246,0.2184,0.2177,0.2171,0.2151,0.2142,0.2242,0.2243,0.2243,0.2243,0,0.2066,0.2062,0.2047,0.2065,0.2069,0.2057,0.2091,0.2091,0.2114,0.2135,0.2125,0.2145,0.2154,0.2152,0.2175,0.2139,0.215,0.2177,0.2212,0.2158,0.2139,0.2131,0.2237,0.2238,0.2239,0.224,0,0,0.1961,0.2001,0.1994,0.2003,0.2029,0.2027,0.2018,0.2026,0.2025,0.2038,0.2029,0.2032,0.2057,0.2064,0.2089,0.2077,0.2028,0.2105,0.2106,0.2089,0.1989,0.1967,0.1957,0.2048,0.2047,0.2046,0.1987,0,0.1901,0.1886,0.1919,0.1896,0.1893,0.1937,0.1929,0.1944,0.1963,0.1964,0.1985,0.1985,0.2019,0.2024,0.2015,0.2036,0.2009,0.2041,0.204,0.2039,0.2031,0.1948,0.1924,0.1868,0.198,0.1979,0.1978,0,0.1829,0.1838,0.1815,0.1842,0.1842,0.1834,0.1845,0.1845,0.1863,0.1878,0.1886,0.1916,0.1908,0.1944,0.1933,0.1954,0.1956,0.1967,0.1966,0.1965,0.2003,0.1943,0.1851,0.1841,0.1967,0.1968,0.1969,0,0.1753,0.176,0.1747,0.1753,0.1785,0.1778,0.1791,0.1811,0.1815,0.1824,0.1827,0.1836,0.184,0.1846,0.1877,0.19,0.1862,0.1901,0.1873,0.1872,0.1861,0.1861,0.1766,0.1866,0.1866,0.1866,0.1866,0,0.1682,0.1665,0.1713,0.1704,0.1687,0.1726,0.1708,0.1725,0.1743,0.1738,0.1778,0.1773,0.1816,0.1815,0.184,0.1827,0.1829,0.184,0.1846,0.1835,0.1833,0.1835,0.1839,0.1864,0.1864,0.1865,0.1865,0,0.1593,0.1624,0.1612,0.1645,0.1652,0.1638,0.1665,0.1659,0.1682,0.1675,0.1676,0.1711,0.1713,0.1746,0.1754,0.1771,0.1747,0.1762,0.174,0.1744,0.1714,0.1716,0.1615,0.1603,0.1712,0.1711,0.1711,0,0.1543,0.1532,0.1563,0.1563,0.1574,0.1574,0.1577,0.1616,0.1618,0.1638,0.1629,0.1634,0.164,0.1641,0.1667,0.1674,0.1688,0.1652,0.1689,0.1678,0.1685,0.1684,0.1683,0.1643,0.1642,0.1641,0.164,0,0.1453,0.1469,0.1473,0.1482,0.1486,0.1495,0.1507,0.1504,0.1546,0.1547,0.1549,0.1554,0.1563,0.1567,0.1579,0.1593,0.1622,0.1629,0.1622,0.1609,0.1596,0.1601,0.1717,0.163,0.1631,0.1632,0.1632,0.1633,0.1381,0.1372,0.1393,0.1396,0.1409,0.1419,0.1414,0.1437,0.1439,0.145,0.1473,0.1471,0.149,0.1509,0.1521,0.152,0.1538,0.1529,0.1527,0.1523,0.1516,0.1599,0.1523,0.1523,0.1523,0.1524,0.1524,0,0.129,0.1306,0.1309,0.1324,0.1326,0.1356,0.137,0.137,0.1368,0.1384,0.1389,0.1392,0.1397,0.1424,0.1431,0.1426,0.1439,0.1426,0.1426,0.1428,0.1501,0.1505,0.1415,0.1415,0.1415,0.1415,0.1415,0.1415,0.1243,0.123,0.1249,0.1243,0.1259,0.1258,0.1263,0.1273,0.1285,0.1287,0.1291,0.1309,0.1329,0.1339,0.1344,0.1352,0.1352,0.1334,0.1346,0.1413,0.1423,0.1433,0.1437,0.1334,0.1334,0.1273,0.1273,0.1272]},{"header":{"parameterUnit":"m.s-1","parameterCategory":1,"la1":30.2991,"la2":30.254,"lo1":-89.0895,"lo2":-89.0444,"dy":0.0017,"dx":0.0017,"nx":28,"ny":28,"refTime":"2025-01-03T03:00:00:Z","depth":0,"parameterNumber":3,"parameterNumberName":"V-component_of_WINDS"},"data":[0,0,0,0,0,0,0,0,0,0,0,0,0,0,0,0,0,0,0,0,0,0,0,0,0,0,0,0,0,0,0,0,0,0,0,0,0,0,0,0,0,0,0,0,0,0,0,0,0,0,0,0,0,0,0,0,0,0,-3.4631,-3.4631,0,-3.4716,-3.4717,-3.4718,-3.4742,-3.4742,-3.4741,-3.4741,-3.4823,-3.4826,-3.4828,0,0,0,0,0,0,0,0,0,0,0,0,0,-3.4483,-3.4486,-3.463,-3.4631,-3.4633,-3.4716,-3.4717,-3.4719,-3.4742,-3.4741,-3.4741,-3.474,-3.4822,-3.4825,-3.4829,0,0,0,0,0,0,0,0,0,0,0,0,0,-3.4556,-3.4487,-3.463,-3.4655,-3.4658,-3.4716,-3.4717,-3.4719,-3.4742,-3.4741,-3.4741,-3.474,-3.4821,-3.4825,-3.4829,-3.4868,0,0,-3.4841,-3.4843,0,0,0,0,0,0,0,0,-3.4552,-3.4561,-3.465,-3.4653,-3.4656,-3.4718,-3.4696,-3.4769,-3.4742,-3.471,-3.4741,-3.474,-3.4788,-3.4795,-3.4813,-3.4872,-3.4875,-3.4842,-3.4844,-3.4846,-3.4847,0,0,0,0,0,0,0,-3.4547,-3.4558,-3.4664,-3.4651,-3.4655,-3.466,-3.467,-3.471,-3.4752,-3.4713,-3.4715,-3.4725,-3.479,-3.4809,-3.4815,-3.4876,-3.4841,-3.4845,-3.4847,-3.4849,-3.4974,-3.4975,0,0,0,0,0,0,-3.4538,-3.4553,-3.4662,-3.4667,-3.4602,-3.4663,-3.4674,-3.4699,-3.4752,-3.4759,-3.4725,-3.4726,-3.4802,-3.481,-3.4818,-3.4869,-3.4846,-3.4849,-3.4852,-3.4973,-3.4975,-3.4976,0,0,0,0,0,0,-3.4535,-3.4548,-3.4658,-3.4611,-3.4625,-3.4667,-3.4694,-3.4701,-3.472,-3.4761,-3.4768,-3.4737,-3.4802,-3.4812,-3.4856,-3.4872,-3.4851,-3.4855,-3.4972,-3.4974,-3.4975,-3.497,0,0,0,0,0,0,-3.4531,-3.4546,-3.4562,-3.4611,-3.4628,-3.4696,-3.4695,-3.4703,-3.4727,-3.4728,-3.4774,-3.4781,-3.4802,-3.485,-3.486,-3.4877,-3.4858,-3.4971,-3.4973,-3.4975,-3.4969,-3.4971,-3.4973,0,0,0,0,0,-3.4525,-3.4555,-3.4563,-3.4576,-3.4649,-3.4697,-3.4706,-3.4732,-3.4728,-3.4744,-3.4771,-3.4779,-3.4868,-3.4854,-3.4866,-3.4884,-3.497,-3.4972,-3.4975,-3.4968,-3.497,-3.4972,0,0,0,0,0,0,-3.4504,-3.4562,-3.4571,-3.4618,-3.4653,-3.4701,-3.4722,-3.4733,-3.4768,-3.4768,-3.4796,-3.4807,-3.4849,-3.4871,-3.4854,-3.4926,-3.4919,-3.4924,-3.491,-3.4913,-3.4915,-3.4909,-3.4861,0,0,0,0,0,-3.4506,-3.4542,-3.4589,-3.4626,-3.4644,-3.468,-3.4702,-3.4719,-3.4755,-3.4769,-3.48,-3.4833,-3.4869,-3.4892,-3.4927,-3.4972,-3.4983,-3.499,-3.4992,-3.4993,-3.4997,-3.5024,-3.5029,-3.4983,-3.4983,-3.4983,0,0,-3.4508,-3.4544,-3.4564,-3.4623,-3.4652,-3.4688,-3.4692,-3.4729,-3.4756,-3.4774,-3.4819,-3.4843,-3.4882,-3.4927,-3.4949,-3.4947,-3.5012,-3.4996,-3.4997,-3.5,-3.5027,-3.5031,-3.5035,-3.4984,-3.4984,-3.4984,0,0,-3.4531,-3.4561,-3.4597,-3.4627,-3.4672,-3.4696,-3.4704,-3.4752,-3.4769,-3.4815,-3.483,-3.4862,-3.4922,-3.4951,-3.4973,-3.501,-3.5019,-3.502,-3.503,-3.5057,-3.506,-3.5064,-3.5079,-3.5083,-3.5023,-3.5023,-3.5023,0,-3.4528,-3.4584,-3.4613,-3.4651,-3.4677,-3.4698,-3.4734,-3.4761,-3.4814,-3.4831,-3.4828,-3.4907,-3.4934,-3.4988,-3.4997,-3.5014,-3.5025,-3.5015,-3.5058,-3.5061,-3.5065,-3.508,-3.5085,-3.5023,-3.5023,-3.5023,-3.5023,0,-3.4579,-3.4618,-3.4641,-3.4695,-3.4724,-3.476,-3.4794,-3.4819,-3.4834,-3.4858,-3.4905,-3.494,-3.4984,-3.4997,-3.501,-3.5053,-3.5051,-3.5052,-3.5047,-3.5069,-3.5083,-3.5089,-3.5023,-3.5023,-3.5023,-3.5023,0,0,-3.459,-3.4663,-3.4671,-3.4697,-3.4749,-3.4779,-3.4817,-3.4862,-3.4884,-3.4919,-3.4952,-3.5004,-3.5008,-3.5033,-3.505,-3.5073,-3.5102,-3.5072,-3.5073,-3.5078,-3.5153,-3.5153,-3.5159,-3.5109,-3.511,-3.5111,-3.5151,0,-3.4622,-3.4693,-3.4721,-3.4778,-3.4815,-3.4836,-3.487,-3.4905,-3.4929,-3.4963,-3.4989,-3.5026,-3.5026,-3.5042,-3.5066,-3.5094,-3.5118,-3.5091,-3.514,-3.5141,-3.5131,-3.5166,-3.5165,-3.5202,-3.5156,-3.5157,-3.5158,0,-3.4667,-3.4707,-3.4769,-3.482,-3.4836,-3.4866,-3.4911,-3.4943,-3.4984,-3.5,-3.503,-3.5046,-3.5086,-3.5078,-3.5134,-3.5115,-3.5136,-3.5153,-3.5155,-3.5162,-3.5152,-3.5175,-3.5214,-3.522,-3.5167,-3.5166,-3.5165,0,-3.4672,-3.4741,-3.4788,-3.4809,-3.4868,-3.4889,-3.4914,-3.4954,-3.4981,-3.5019,-3.5037,-3.5078,-3.5101,-3.5133,-3.516,-3.5151,-3.5214,-3.5207,-3.5229,-3.5229,-3.5242,-3.5241,-3.5286,-3.5253,-3.5253,-3.5253,-3.5253,0,-3.4704,-3.4742,-3.4791,-3.482,-3.4863,-3.4895,-3.4936,-3.4962,-3.4998,-3.5032,-3.5051,-3.5083,-3.5116,-3.5151,-3.5172,-3.5217,-3.5226,-3.5241,-3.5246,-3.524,-3.5239,-3.5255,-3.5254,-3.5254,-3.5254,-3.5254,-3.5254,0,-3.4717,-3.4751,-3.4804,-3.4858,-3.4872,-3.4901,-3.4946,-3.4975,-3.5001,-3.5044,-3.5055,-3.5095,-3.5138,-3.5169,-3.5222,-3.5237,-3.5286,-3.529,-3.5273,-3.5276,-3.5297,-3.5295,-3.5355,-3.5366,-3.5324,-3.5324,-3.5324,0,-3.4736,-3.4766,-3.4824,-3.4849,-3.4876,-3.4916,-3.4944,-3.4976,-3.5004,-3.5054,-3.5077,-3.5122,-3.516,-3.5227,-3.526,-3.5302,-3.5309,-3.5327,-3.5315,-3.5309,-3.5311,-3.531,-3.5314,-3.5329,-3.5329,-3.5329,-3.533,0,-3.4767,-3.4784,-3.4824,-3.4872,-3.4906,-3.4944,-3.4982,-3.5001,-3.504,-3.507,-3.5116,-3.5146,-3.5203,-3.5248,-3.5294,-3.5319,-3.5331,-3.5333,-3.5341,-3.5336,-3.5326,-3.5334,-3.528,-3.5332,-3.5332,-3.5331,-3.5331,-3.5331,-3.4785,-3.4814,-3.486,-3.4905,-3.4938,-3.4974,-3.5005,-3.5036,-3.5076,-3.5127,-3.5143,-3.5191,-3.5232,-3.5296,-3.5321,-3.5359,-3.5357,-3.5368,-3.5371,-3.5373,-3.5374,-3.5319,-3.5366,-3.5366,-3.5366,-3.5366,-3.5366,0,-3.4819,-3.4851,-3.4892,-3.4947,-3.4983,-3.4994,-3.5037,-3.5066,-3.5109,-3.5148,-3.5186,-3.5239,-3.5283,-3.5321,-3.5366,-3.5389,-3.5396,-3.54,-3.5399,-3.5405,-3.5371,-3.5362,-3.5394,-3.5394,-3.5394,-3.5394,-3.5394,-3.5394,-3.4841,-3.4891,-3.4914,-3.4981,-3.5011,-3.5061,-3.5085,-3.5119,-3.515,-3.521,-3.5248,-3.5273,-3.5311,-3.536,-3.5401,-3.5411,-3.5428,-3.5431,-3.5442,-3.541,-3.5407,-3.5404,-3.5395,-3.5434,-3.5434,-3.5473,-3.5473,-3.5474]}]]